This is the latest recevied weather packets stored in our database for station/object AD8BV. If no packets are shown the sender has not sent any weather packets the latest 10 day(s).
| Time | Temp. | Humidity | Pressure | Rain* | Wind** | Luminosity | Snow |
|---|---|---|---|---|---|---|---|
| 1777928323 | 24.44° C | 50% | 1001.6 hPa | 0 mm | - | 95 W/m² | - |
| 1777928021 | 23.33° C | 49% | 1001.6 hPa | 0 mm | - | 493 W/m² | - |
| 1777927719 | 24.44° C | 48% | 1001.8 hPa | 0 mm | - | 134 W/m² | - |
| 1777927417 | 24.44° C | 46% | 1001.7 hPa | 0 mm | - | 469 W/m² | - |
| 1777927116 | 23.33° C | 49% | 1001.7 hPa | 0 mm | - | 526 W/m² | - |
| 1777926813 | 23.89° C | 46% | 1001.8 hPa | 0 mm | - | 112 W/m² | - |
| 1777926508 | 24.44° C | 46% | 1002.3 hPa | 0 mm | - | 445 W/m² | - |
| 1777926206 | 23.89° C | 45% | 1002 hPa | 0 mm | - | 582 W/m² | - |
| 1777925902 | 23.33° C | 46% | 1001.9 hPa | 0 mm | - | 144 W/m² | - |
| 1777925600 | 23.89° C | 47% | 1002.1 hPa | 0 mm | - | 169 W/m² | - |
| 1777925297 | 24.44° C | 45% | 1002 hPa | 0 mm | - | 162 W/m² | - |
| 1777924994 | 24.44° C | 45% | 1002.1 hPa | 0 mm | - | 629 W/m² | - |
| 1777924690 | 24.44° C | 45% | 1002 hPa | 0 mm | - | 632 W/m² | - |
| 1777924386 | 24.44° C | 42% | 1002.1 hPa | 0 mm | - | 422 W/m² | - |
| 1777924083 | 25° C | 43% | 1002.3 hPa | 0 mm | - | 121 W/m² | - |
| 1777923779 | 24.44° C | 42% | 1002.4 hPa | 0 mm | - | 657 W/m² | - |
| 1777923475 | 24.44° C | 41% | 1002.3 hPa | 0 mm | - | 178 W/m² | - |
| 1777923173 | 24.44° C | 43% | 1002.6 hPa | 0 mm | - | 634 W/m² | - |
| 1777922871 | 24.44° C | 39% | 1002.4 hPa | 0 mm | - | 641 W/m² | - |
| 1777922569 | 25° C | 39% | 1002.5 hPa | 0 mm | - | 652 W/m² | - |
| 1777922267 | 25° C | 39% | 1002.4 hPa | 0 mm | - | 640 W/m² | - |
| 1777921964 | 25° C | 38% | 1002.4 hPa | 0 mm | - | 619 W/m² | - |
| 1777921659 | 25° C | 40% | 1002.3 hPa | 0 mm | - | 552 W/m² | - |
| 1777921356 | 25° C | 39% | 1002.6 hPa | 0 mm | - | 666 W/m² | - |
| 1777921052 | 25° C | 37% | 1002.3 hPa | 0 mm | - | 685 W/m² | - |
* Rain latest hour (hover to see other rain measurements)
** Current wind speed in m/s (hover to see current wind gust speed)